This demonstration page uses our WeatherBlox Daily Observations layout. Learn more.

Left ArrowRight Arrow

34.74481, -87.66753

Hourly Observations for August 11, 2015

Temp ( °F °C ) Dew Point ( °F °C ) Humidity (%) Winds ( mph kmh ) Pressure ( in mb ) Visibility ( mi km ) Precip ( " mm )
12:53 am 00:53 Clear 73 22.8 70 21.1 90 90 Calm 29.93 1014 10 16 0.00 0.00
1:53 am 01:53 Clear 73 22.8 70 21.1 90 90 Calm 29.92 1013 9 14 0.00 0.00
2:53 am 02:53 Mostly Clear 73 22.8 69 20.6 87 87 WSW 3 6 29.93 1013 9 14 0.00 0.00
3:53 am 03:53 Mostly Cloudy 74 23.3 71 21.7 91 91 Calm 29.93 1013 10 16 0.00 0.00
4:53 am 04:53 Clear 72 22.2 69 20.6 91 91 Calm 29.93 1014 10 16 0.00 0.00
5:53 am 05:53 Clear with Mist and Fog 71 21.7 69 20.6 94 94 Calm 29.94 1014 6 10 0.00 0.00
6:53 am 06:53 Sunny with Mist and Fog 72 22.2 69 20.6 91 91 Calm 29.97 1015 5 8 0.00 0.00
7:53 am 07:53 Sunny 78 25.6 72 22.2 82 82 WNW 3 6 29.98 1015 10 16 0.00 0.00
8:53 am 08:53 Partly Cloudy 81 27.2 72 22.2 74 74 Calm 29.99 1016 10 16 0.00 0.00
9:53 am 09:53 Sunny 84 28.9 72 22.2 67 67 NNW 3 6 30.00 1016 10 16 0.00 0.00
10:53 am 10:53 Partly Cloudy 87 30.6 74 23.3 65 65 Calm 30.01 1016 9 14 0.00 0.00
11:53 am 11:53 Mostly Sunny 88 31.1 73 22.8 61 61 NW 3 6 30.00 1016 10 16 0.00 0.00
12:53 pm 12:53 Mostly Sunny 89 31.7 72 22.2 57 57 NNW 5 7 29.98 1015 10 16 0.00 0.00
1:53 pm 13:53 Mostly Sunny 89 31.7 73 22.8 59 59 NNW 3 6 29.97 1015 10 16 0.00 0.00
2:53 pm 14:53 Partly Cloudy 91 32.8 71 21.7 52 52 N 8 13 29.96 1015 10 16 0.00 0.00
3:53 pm 15:53 Mostly Sunny 90 32.2 70 21.1 52 52 N 8 13 29.95 1014 10 16 0.00 0.00
4:53 pm 16:53 Sunny 90 32.2 69 20.6 50 50 N 7 11 29.95 1014 10 16 0.00 0.00
5:53 pm 17:53 Sunny 88 31.1 69 20.6 54 54 N 7 11 29.94 1014 10 16 0.00 0.00
6:53 pm 18:53 Sunny 86 30 68 20 55 55 N 5 7 29.95 1014 10 16 0.00 0.00
7:53 pm 19:53 Clear 81 27.2 68 20 65 65 N 5 7 29.96 1015 10 16 0.00 0.00
8:53 pm 20:53 Clear 79 26.1 68 20 69 69 NNW 5 7 29.98 1015 10 16 0.00 0.00
9:53 pm 21:53 Clear 79 26.1 69 20.6 72 72 N 5 7 30.01 1016 10 16 0.00 0.00
10:53 pm 22:53 Clear 78 25.6 68 20 71 71 N 5 7 30.01 1016 10 16 0.00 0.00
11:53 pm 23:53 Clear 76 24.4 69 20.6 79 79 N 3 6 30.02 1017 10 16 0.00 0.00

Powered by AerisWeather